Weather Roundup
Issued by NWS

Home | Current Version | Previous Version | Graphics & Text | Print | Product List | Glossary Off
Versions: 1 2 3 4 5 6 7 8 9 10 11 12 13 14 15 16 17 18 19 20 21 22 23 24 25 26 27 28 29 30 31 32 33 34 35 36 37 38 39 40 41 42 43 44 45 46 47 48 49 50

000
NZUS93 KARX 162010
HRRWXR

CURRENT HOURLY OBSERVATIONS ACROSS
MUCH OF THE UPPER MISSISSIPPI VALLEY
NATIONAL WEATHER SERVICE LA CROSSE WI
200 PM CST THU NOV 16 2017


...SOUTHEAST MINNESOTA...


CITY           SKY/WX    TMP DP  RH WIND       PRES   REMARKS
ROCHESTER      CLOUDY    31  26  82 SE8       30.16F WCI  23
ROCHESTER/MAYO CLOUDY    31  26  80 SE6       30.17F WCI  25
WINONA           N/A     34  27  75 E6        30.20F WCI  29
AUSTIN         CLOUDY    30  25  80 SE8       30.15F WCI  23
ALBERT LEA     CLOUDY    30  25  80 SE10      30.15R WCI  21
DODGE CENTER   CLOUDY    30  25  80 SE9       30.13F WCI  22
PRESTON        CLOUDY    31  25  77 SE10      30.17F WCI  23
OWATONNA       CLOUDY    30  27  86 SE12      30.15F WCI  21
FARIBAULT      CLOUDY    30  27  86 SE9       30.15F WCI  22
$$

...ELSEWHERE IN MINNESOTA...


CITY           SKY/WX    TMP DP  RH WIND       PRES   REMARKS
MINNEAPOLIS    CLOUDY    32  25  75 SE12      30.17F WCI  23
INTNL FALLS    CLOUDY    23  15  71 SE12      30.10F WCI  12
DULUTH         CLOUDY    24  21  88 SE17      30.15F WCI  11
RED WING       CLOUDY    32  21  64 S6        30.18S WCI  26
REDWOOD FALLS  CLOUDY    28  23  81 SE17      30.08F WCI  16
MANKATO        CLOUDY    30  26  85 SE13      30.15F WCI  20
WORTHINGTON    CLOUDY    28  25  86 SE17      30.02F WCI  16
FAIRMONT       CLOUDY    28  25  88 S14       30.13F WCI  17
$$

...SOUTHWEST WISCONSIN...


CITY           SKY/WX    TMP DP  RH WIND       PRES   REMARKS
LA CROSSE      CLOUDY    37  25  61 E8        30.20F WCI  31
PRAIRIE DU CHI PTSUNNY   37  25  61 E3        30.20F
BOSCOBEL       CLOUDY    38  26  62 SE3       30.22S
LONE ROCK      CLOUDY    35  27  72 CALM      30.22S
PLATTEVILLE    CLOUDY    38  30  74 E6        30.20F WCI  33
FORT MC COY    MOSUNNY   36  25  65 S8        30.22R WCI  29
CAMP DOUGLAS   PTSUNNY   36  23  60 E7        30.19F WCI  30
MAUSTON-NEW LI CLEAR     36  24  63 E5        30.20R WCI  32
VIROQUA        CLOUDY    33  28  81 SE7       30.18F WCI  26
WIS DELLS      SUNNY     35  23  63 E3        30.20S
$$

...ELSEWHERE IN WISCONSIN...


CITY           SKY/WX    TMP DP  RH WIND       PRES   REMARKS
MILWAUKEE      PTSUNNY   37  26  64 NE9       30.22S WCI  30
MADISON        PTSUNNY   36  25  64 NE7       30.20F WCI  30
GREEN BAY      PTSUNNY   36  26  67 N9        30.23R WCI  29
EAU CLAIRE     PTSUNNY   34  22  61 S7        30.19S WCI  28
BLACK RVR FLS  FAIR      37  21  51 CALM      30.20S
MEDFORD        CLOUDY    30  22  74 NE5       30.18F WCI  25
WAUSAU         CLOUDY    32  23  69 NE3       30.19S
WIS RAPIDS     SUNNY     37  24  59 CALM      30.20F
MARSHFIELD     PTSUNNY   34  22  61 NE6       30.18F WCI  29
RICE LAKE      CLOUDY    31  23  73 E8        30.20S WCI  23
$$

...NORTHEAST IOWA...


CITY           SKY/WX    TMP DP  RH WIND       PRES   REMARKS
WATERLOO       MOSUNNY   33  25  72 E9        30.18F WCI  25
DUBUQUE        MOSUNNY   37  26  64 SE7       30.19F WCI  32
DECORAH        CLOUDY    34  27  75 CALM      30.17F
MASON CITY     CLOUDY    31  25  78 S10       30.17S WCI  22
CHARLES CITY   CLOUDY    32  28  86 E12       30.17F WCI  23
OELWEIN        CLOUDY    32  28  86 SE6       30.18F WCI  26
$$

...ELSEWHERE IN IOWA...


CITY           SKY/WX    TMP DP  RH WIND       PRES   REMARKS
DES MOINES     PTSUNNY   39  26  59 E7        30.15F WCI  34
IOWA CITY      SUNNY     38  28  67 SE7       30.22F WCI  33
FORT DODGE     PTSUNNY   31  27  85 SE8       30.15F WCI  23
MARSHALLTOWN   CLOUDY    32  27  81 S7        30.18S WCI  26
CEDAR RAPIDS   MOSUNNY   35  27  72 SE5       30.19F WCI  31
$$

...NORTHERN ILLINOIS...


CITY           SKY/WX    TMP DP  RH WIND       PRES   REMARKS
CHICAGO-OHARE  CLOUDY    37  27  67 N6        30.22S WCI  32
CHICAGO-MIDWAY CLOUDY    38  28  67 NE6       30.23S WCI  33
MOLINE         SUNNY     38  26  62 E5        30.21F WCI  34
ROCKFORD       CLOUDY    37  27  67 CALM      30.23F
PEORIA         CLOUDY    36  28  73 E7        30.24F WCI  30
$$

NOTE: "FAIR" INDICATES FEW OR NO CLOUDS BELOW 12,000 FEET WITH NO
SIGNIFICANT WEATHER AND/OR OBSTRUCTIONS TO VISIBILITY. WIND
SPEEDS ARE IN MILES-PER-HOUR.




USA.gov is the U.S. government's official web portal to all federal, state and local government web resources and services.